Paynesville, MN

6:57 AM CDT on August 19, 2017 (GMT -0500)
Paynesville

Weather History for KPEX - April, 2014

Change the Weather History Date:

Sunday, April 13, 2014

  Actual Average (KLJF) Record (KLJF)
Temperature  
Mean Temperature 36 °F -  
Max Temperature 42 °F 54 °F 82 °F (2003)
Min Temperature 30 °F 33 °F 13 °F (1950)
Degree Days  
Heating Degree Days 29    
Moisture  
Dew Point 28 °F    
Average Humidity 75    
Maximum Humidity 94    
Minimum Humidity 56    
Precipitation  
Precipitation 0.00 in - - ()
Sea Level Pressure  
Sea Level Pressure 29.91 in    
Wind  
Wind Speed 9 mph (NNW)    
Max Wind Speed 21 mph    
Max Gust Speed 28 mph    
Visibility 10 miles    
Events      
Averages and records for this station are not official NWS values.
T = Trace of Precipitation, MM = Missing Value Source: NWS Daily Summary

Daily Weather History Graph

Daily Weather History Graph

Search for Another Location

Airport or City:

Trip Planner

Search our weather history database for the weather conditions in past years. The results will help you decide how hot, cold, wet, or windy it might be!

Date:

Astronomy

Apr. 13, 2014 Rise Set
Actual Time 6:37 AM CDT 8:02 PM CDT
Civil Twilight 6:06 AM CDT 8:33 PM CDT
Nautical Twilight 5:29 AM CDT 9:10 PM CDT
Astronomical Twilight 4:49 AM CDT 9:50 PM CDT
Moon 6:38 PM CDT (4/13) 5:41 AM CDT (4/13)
Length of Visible Light 14h 26m
Length of Day
13h 25m
Waxing Gibbous, 97% of the Moon is Illuminated
Apr 13
Waxing Gibbous
Apr 15
Full
Apr 22
Last Quarter
Apr 29
New
May 6
First Quarter

Hourly Weather History & Observations

Time (CDT) Temp. Windchill Dew Point Humidity Pressure Visibility Wind Dir Wind Speed Gust Speed Precip Events Conditions
12:12 AM 42.1 °F 37.7 °F 38.3 °F 86% 29.74 in 10.0 mi NNE 6.9 mph - N/A   Overcast
12:32 AM 41.9 °F - 38.3 °F 87% 29.77 in 10.0 mi Calm Calm - N/A   Overcast
12:52 AM 41.9 °F - 38.3 °F 87% 29.79 in 10.0 mi Calm Calm - N/A   Overcast
1:12 AM 41.7 °F 38.8 °F 38.1 °F 87% 29.79 in 10.0 mi NE 4.6 mph - N/A   Overcast
1:32 AM 41.2 °F - 37.8 °F 88% 29.80 in 10.0 mi Calm Calm - N/A   Overcast
1:52 AM 41.0 °F - 37.6 °F 88% 29.80 in 10.0 mi Calm Calm - N/A   Overcast
2:12 AM 41.2 °F - 37.8 °F 88% 29.82 in 10.0 mi Calm Calm - N/A   Overcast
2:32 AM 41.0 °F - 37.9 °F 89% 29.81 in 10.0 mi Calm Calm - N/A   Overcast
2:52 AM 40.6 °F - 37.6 °F 89% 29.83 in 10.0 mi Calm Calm - N/A   Overcast
3:13 AM 40.5 °F - 37.4 °F 89% 29.83 in 10.0 mi Calm Calm - N/A   Overcast
3:32 AM 40.3 °F - 37.4 °F 89% 29.84 in 10.0 mi Calm Calm - N/A   Overcast
3:52 AM 40.1 °F - 37.4 °F 90% 29.84 in 10.0 mi Calm Calm - N/A   Overcast
4:13 AM 40.1 °F - 37.0 °F 89% 29.85 in 10.0 mi Calm Calm - N/A   Overcast
4:32 AM 40.1 °F - 37.4 °F 90% 29.85 in 10.0 mi Calm Calm - N/A   Overcast
4:52 AM 40.1 °F - 37.6 °F 91% 29.86 in 10.0 mi Calm Calm - N/A   Overcast
5:12 AM 40.1 °F - 37.6 °F 91% 29.86 in 10.0 mi Calm Calm - N/A   Overcast
5:32 AM 40.3 °F 38.2 °F 38.1 °F 92% 29.86 in 10.0 mi NW 3.5 mph - N/A   Overcast
5:52 AM 40.3 °F 31.9 °F 37.8 °F 91% 29.86 in 10.0 mi NW 16.1 mph - N/A   Overcast
6:12 AM 38.1 °F 29.1 °F 34.7 °F 87% 29.86 in 10.0 mi NW 16.1 mph 20.7 mph N/A   Overcast
6:32 AM 35.6 °F 25.2 °F 32.4 °F 88% 29.86 in 10.0 mi NW 18.4 mph 24.2 mph N/A   Overcast
6:52 AM 34.0 °F 23.0 °F 32.0 °F 92% 29.87 in 10.0 mi NNW 18.4 mph 26.5 mph N/A   Overcast
7:12 AM 33.3 °F 22.8 °F 31.8 °F 94% 29.89 in 10.0 mi NW 16.1 mph 25.3 mph N/A   Overcast
7:32 AM 32.9 °F 21.6 °F 31.1 °F 93% 29.89 in 10.0 mi NW 18.4 mph 24.2 mph N/A   Overcast
7:52 AM 32.9 °F 22.0 °F 30.9 °F 92% 29.90 in 10.0 mi NW 17.3 mph 20.7 mph N/A   Overcast
8:12 AM 32.2 °F 22.3 °F 30.2 °F 92% 29.92 in 10.0 mi NW 13.8 mph 25.3 mph N/A   Overcast
8:32 AM 32.0 °F 22.5 °F 30.0 °F 92% 29.93 in 10.0 mi NW 12.7 mph 20.7 mph N/A   Overcast
8:53 AM 32.0 °F 21.6 °F 29.8 °F 92% 29.92 in 10.0 mi NNW 15.0 mph 19.6 mph N/A   Overcast
9:12 AM 32.0 °F 23.6 °F 29.3 °F 90% 29.93 in 10.0 mi NNW 10.4 mph 21.9 mph N/A   Overcast
9:31 AM 32.0 °F 23.0 °F 29.1 °F 89% 29.93 in 10.0 mi NNW 11.5 mph 19.6 mph N/A   Overcast
9:52 AM 32.2 °F 22.7 °F 29.3 °F 89% 29.93 in 10.0 mi NNW 12.7 mph 19.6 mph N/A   Overcast
10:32 AM 33.3 °F 23.7 °F 28.2 °F 82% 29.91 in 10.0 mi North 13.8 mph 21.9 mph N/A   Overcast
10:52 AM 33.3 °F 22.5 °F 27.5 °F 79% 29.91 in 10.0 mi NNW 17.3 mph 27.6 mph N/A   Overcast
11:12 AM 33.3 °F 21.5 °F 27.7 °F 80% 29.90 in 10.0 mi NNW 20.7 mph 27.6 mph N/A   Overcast
11:32 AM 33.6 °F 23.7 °F 27.5 °F 78% 29.92 in 10.0 mi North 15.0 mph 23.0 mph N/A   Overcast
11:52 AM 33.8 °F 22.8 °F 27.0 °F 76% 29.91 in 10.0 mi North 18.4 mph 26.5 mph N/A   Overcast
12:12 PM 34.7 °F 24.3 °F 26.6 °F 72% 29.91 in 10.0 mi North 17.3 mph 23.0 mph N/A   Overcast
12:32 PM 34.7 °F 24.3 °F 27.0 °F 73% 29.94 in 10.0 mi NNW 17.3 mph 23.0 mph N/A   Overcast
12:52 PM 34.0 °F 24.6 °F 25.7 °F 72% 29.96 in 10.0 mi North 13.8 mph 24.2 mph N/A   Overcast
1:13 PM 34.7 °F 25.5 °F 26.1 °F 71% 29.97 in 10.0 mi North 13.8 mph 20.7 mph N/A   Overcast
1:32 PM 35.6 °F 25.9 °F 26.1 °F 68% 29.96 in 10.0 mi North 16.1 mph 20.7 mph N/A   Overcast
1:52 PM 36.7 °F 27.6 °F 26.4 °F 66% 29.95 in 10.0 mi North 15.0 mph - N/A   Mostly Cloudy
2:13 PM 37.9 °F 28.5 °F 27.1 °F 65% 29.94 in 10.0 mi NNW 17.3 mph 23.0 mph N/A   Scattered Clouds
2:32 PM 37.9 °F 29.2 °F 26.2 °F 63% 29.94 in 10.0 mi North 15.0 mph 24.2 mph N/A   Scattered Clouds
2:52 PM 38.5 °F 29.9 °F 26.1 °F 61% 29.94 in 10.0 mi North 15.0 mph 23.0 mph N/A   Mostly Cloudy
3:12 PM 38.7 °F 29.5 °F 25.5 °F 59% 29.93 in 10.0 mi North 17.3 mph 23.0 mph N/A   Overcast
3:32 PM 38.3 °F 30.5 °F 24.8 °F 58% 29.92 in 10.0 mi North 12.7 mph 24.2 mph N/A   Overcast
3:52 PM 38.5 °F 29.6 °F 24.3 °F 57% 29.92 in 10.0 mi North 16.1 mph 24.2 mph N/A   Overcast
4:12 PM 38.7 °F 29.8 °F 24.6 °F 57% 29.91 in 10.0 mi NNW 16.1 mph 27.6 mph N/A   Overcast
4:32 PM 38.3 °F 29.0 °F 24.6 °F 58% 29.91 in 10.0 mi NNW 17.3 mph 25.3 mph N/A   Overcast
4:52 PM 37.6 °F 28.8 °F 23.7 °F 57% 29.92 in 10.0 mi North 15.0 mph 26.5 mph N/A   Mostly Cloudy
5:12 PM 37.6 °F 28.1 °F 23.4 °F 57% 29.92 in 10.0 mi North 17.3 mph 24.2 mph N/A   Scattered Clouds
5:32 PM 37.6 °F 29.1 °F 23.0 °F 56% 29.93 in 10.0 mi North 13.8 mph 24.2 mph N/A   Clear
5:52 PM 36.9 °F 27.5 °F 23.5 °F 59% 29.93 in 10.0 mi North 16.1 mph 24.2 mph N/A   Clear
6:12 PM 36.1 °F 26.9 °F 23.4 °F 60% 29.95 in 10.0 mi North 15.0 mph 24.2 mph N/A   Clear
6:32 PM 35.6 °F 25.5 °F 22.8 °F 60% 29.94 in 10.0 mi North 17.3 mph 24.2 mph N/A   Clear
6:53 PM 35.6 °F 26.6 °F 22.6 °F 59% 29.95 in 10.0 mi North 13.8 mph 21.9 mph N/A   Clear
7:12 PM 35.2 °F 26.2 °F 21.7 °F 58% 29.95 in 10.0 mi North 13.8 mph 21.9 mph N/A   Clear
7:32 PM 34.9 °F 24.9 °F 21.4 °F 58% 29.95 in 10.0 mi North 16.1 mph 21.9 mph N/A   Clear
7:52 PM 34.7 °F 25.1 °F 21.7 °F 59% 29.95 in 10.0 mi North 15.0 mph 23.0 mph N/A   Clear
8:12 PM 34.2 °F 24.0 °F 21.7 °F 60% 29.94 in 10.0 mi North 16.1 mph 21.9 mph N/A   Clear
8:32 PM 33.6 °F 25.0 °F 21.6 °F 61% 29.94 in 10.0 mi North 11.5 mph 23.0 mph N/A   Clear
8:52 PM 32.7 °F 23.0 °F 21.2 °F 63% 29.96 in 10.0 mi North 13.8 mph 24.2 mph N/A   Clear
9:12 PM 32.2 °F 20.7 °F 21.0 °F 63% 29.97 in 10.0 mi NNW 18.4 mph 23.0 mph N/A   Clear
9:31 PM 32.0 °F 21.2 °F 20.7 °F 63% 29.98 in 10.0 mi NNW 16.1 mph 26.5 mph N/A   Clear
9:52 PM 32.0 °F 22.5 °F 20.3 °F 62% 29.99 in 10.0 mi North 12.7 mph 25.3 mph N/A   Clear
10:12 PM 31.6 °F 20.4 °F 19.2 °F 60% 30.00 in 10.0 mi North 17.3 mph 27.6 mph N/A   Clear
10:32 PM 31.1 °F 21.4 °F 20.3 °F 64% 30.01 in 10.0 mi North 12.7 mph 17.3 mph N/A   Clear
10:52 PM 31.1 °F 18.9 °F 19.6 °F 62% 30.01 in 10.0 mi NNW 19.6 mph 25.3 mph N/A   Clear
11:12 PM 30.9 °F 20.7 °F 19.4 °F 62% 30.02 in 10.0 mi NNW 13.8 mph 26.5 mph N/A   Clear
11:32 PM 30.7 °F 18.8 °F 19.4 °F 63% 30.02 in 10.0 mi NNW 18.4 mph 23.0 mph N/A   Clear
11:52 PM 30.6 °F 19.8 °F 19.2 °F 63% 30.02 in 10.0 mi NNW 15.0 mph 24.2 mph N/A   Clear